Location: Lugrin
(46.4033°N, 6.6674°E)
Time: 20:01:55
(UTC+00:00)

ISS - Visible Passes

Search period start: 29 November 2020 00:00
Search period end: 09 December 2020 00:00
Orbit: 418 x 420 km, 51.6° (Epoch: 30 November)

Date Brightness Start Highest point End Pass type
(mag) Time Alt. Az. Time Alt. Az. Time Alt. Az.
29 Nov -2.9 16:24:44 10° W 16:27:57 40° NNW 16:31:10 10° ENE visible
29 Nov -2.1 18:02:09 10° WNW 18:04:13 27° NNW 18:04:13 27° NNW visible
30 Nov -2.7 17:14:31 10° WNW 17:17:35 32° N 17:18:35 26° NE visible
30 Nov -0.3 18:51:27 10° WNW 18:51:32 10° WNW 18:51:32 10° WNW visible
01 Dec -2.7 16:26:49 10° WNW 16:29:54 32° N 16:32:57 10° ENE visible
01 Dec -2.2 18:03:55 10° WNW 18:05:55 29° NW 18:05:55 29° NW visible
02 Dec -3.0 17:16:21 10° WNW 17:19:32 37° NNE 17:20:20 32° NE visible
02 Dec -0.3 18:53:09 10° WNW 18:53:18 11° WNW 18:53:18 11° WNW visible
03 Dec -2.8 16:28:43 10° WNW 16:31:50 33° N 16:34:49 11° ENE visible
03 Dec -2.5 18:05:34 10° WNW 18:07:47 38° WNW 18:07:47 38° WNW visible
04 Dec -3.7 17:17:59 10° WNW 17:21:20 58° NNE 17:22:22 38° E visible
04 Dec -0.3 18:55:02 10° W 18:55:20 12° W 18:55:20 12° W visible
05 Dec -3.3 16:30:25 10° WNW 16:33:40 45° NNE 16:36:55 10° E visible
05 Dec -2.5 18:07:16 10° WNW 18:10:03 41° WSW 18:10:03 41° WSW visible
06 Dec -3.5 17:19:36 10° WNW 17:22:57 68° SSW 17:24:56 22° SE visible
07 Dec -3.8 16:31:58 10° WNW 16:35:21 81° NNE 16:38:42 10° ESE visible
07 Dec -1.2 18:09:24 10° W 18:11:48 18° SW 18:13:05 15° SSW visible
08 Dec -1.7 17:21:24 10° W 17:24:20 28° SW 17:27:16 10° SSE visible
